Theta_e
325 326 325 325 323 320 314 312 307 304 307 312 309 311 308 311 307 306 308 303 300 298 298 299 300 301 301 302 303 303 304 304 305 305 306 306 307 307
325 324 325 324 324 320 316 311 310 309 305 314 309 307 307 304 299 303 309 299 299 298 297 297 298 299 299 299 299 299 300 300 301 302 302 303 304 305
326 326 323 319 317 315 313 312 309 309 306 310 305 307 299 300 302 303 306 305 306 298 296 296 296 296 296 297 296 297 296 296 296 297 298 299 300 302
324 323 320 316 316 314 310 307 308 310 307 304 298 304 302 299 300 303 303 301 303 299 295 295 294 294 294 294 295 295 294 294 294 294 293 293 295 296
319 319 317 314 311 310 307 307 307 303 305 299 301 295 297 299 296 299 299 303 300 297 292 292 292 292 293 292 292 293 293 293 292 292 292 291 292 293
316 316 316 313 312 310 307 306 302 298 300 296 294 294 293 296 296 295 298 299 295 293 292 290 291 291 291 292 292 292 291 291 291 291 290 290 290 291
318 315 314 311 306 308 304 302 300 296 295 293 291 291 290 291 291 294 294 293 292 293 292 293 293 292 292 292 292 291 291 290 289 289 290 290 290 291
315 313 313 303 302 296 296 296 297 296 293 290 289 289 290 291 293 291 290 288 286 293 290 290 291 290 291 292 291 289 289 289 290 290 290 291 291 291
314 310 303 301 298 295 290 288 287 289 291 291 288 289 289 289 290 289 288 287 287 289 289 287 290 289 292 290 290 290 289 289 289 289 290 290 290 291
308 303 299 295 294 290 289 285 285 285 285 285 288 287 288 288 288 288 288 287 287 287 288 283 288 287 290 290 289 289 289 289 289 288 288 289 290 289
294 294 293 289 289 289 284 283 282 282 284 284 283 282 282 281 283 286 284 283 282 284 286 284 286 286 286 287 290 290 289 289 289 288 287 288 289 289
287 288 288 288 286 286 285 284 281 280 281 280 280 280 281 282 280 283 283 281 281 281 286 283 284 283 282 286 288 288 290 290 288 288 288 288 288 291
284 284 285 285 285 285 285 284 283 282 281 281 282 283 283 283 283 283 283 281 280 280 283 283 282 281 281 281 284 286 288 290 289 289 287 287 287 286
282 283 283 284 284 283 281 281 281 282 282 282 280 280 281 281 281 281 281 281 281 280 282 281 279 280 279 279 279 284 287 289 289 288 290 289 286 286
282 283 283 282 281 280 280 279 280 281 280 279 279 279 279 279 278 279 279 280 280 281 279 279 279 279 280 278 279 281 282 286 289 289 289 289 289 289
282 282 281 281 281 279 278 279 280 279 279 278 278 278 278 277 277 278 277 278 277 277 279 280 280 279 278 279 280 280 283 283 288 289 289 289 289 289
280 281 280 280 279 279 279 278 278 277 277 277 277 276 276 276 276 276 276 275 274 274 275 277 279 280 280 280 279 280 282 285 288 288 287 286 288 289
281 280 280 280 279 279 278 277 277 275 277 276 275 275 274 274 274 274 274 273 273 274 275 276 277 278 279 281 284 283 284 285 287 287 287 285 285 288
280 279 279 279 279 278 277 277 276 275 274 274 273 273 273 273 272 272 273 273 273 274 275 276 276 276 275 274 281 285 283 286 287 285 286 285 285 286
279 278 277 277 277 276 276 275 275 275 274 273 272 272 272 271 271 271 272 272 273 273 273 274 275 276 275 274 274 279 280 280 284 285 285 286 287 281
277 276 276 276 275 275 274 274 273 272 271 271 271 271 271 271 270 271 271 270 270 271 271 273 275 275 276 277 275 277 282 284 282 286 286 284 283 284
276 275 274 274 273 273 273 272 272 271 271 271 270 270 270 270 269 269 270 270 270 271 271 273 275 275 275 274 274 276 278 281 285 284 282 282 284 280
273 273 272 272 272 271 271 270 269 269 269 269 268 268 268 268 268 269 269 269 269 269 270 270 272 273 273 274 274 275 277 277 283 283 284 282 282 282
Wind_Speed
15 15 13 10 9 10 8 8 9 8 10 11 8 9 6 8 7 7 6 9 6 6 7 8 9 10 11 13 15 17 19 21 22 24 27 29 30 32
13 17 15 11 11 10 9 9 10 12 8 9 9 6 6 6 7 5 9 4 8 8 8 8 9 10 11 13 14 16 18 20 21 23 25 28 30 32
18 18 16 11 8 9 10 10 11 12 11 5 4 7 8 7 8 6 6 7 7 12 9 8 8 10 11 13 14 17 19 20 22 24 26 28 30 32
18 16 16 7 10 10 9 12 11 12 9 11 7 9 7 6 2 6 6 7 8 8 7 6 9 11 13 14 15 16 17 18 20 22 25 27 29 31
12 12 11 11 11 10 10 9 10 6 9 4 7 2 2 4 4 6 7 9 7 5 8 13 13 13 12 12 15 16 17 18 20 20 21 23 25 27
16 15 16 16 15 16 13 12 11 9 8 6 4 4 3 5 5 4 8 8 7 7 7 8 7 10 13 16 16 17 19 19 19 20 21 22 22 24
16 14 15 17 20 17 11 12 12 10 10 7 5 3 4 5 7 6 6 6 7 8 7 6 6 7 9 11 14 16 12 15 20 24 25 23 23 23
15 15 16 14 14 15 13 15 15 14 11 7 5 7 8 5 6 5 6 6 7 3 5 7 8 9 9 9 9 9 14 17 20 23 24 24 23 23
15 11 7 6 10 9 12 16 13 11 9 8 9 7 5 5 6 6 7 7 8 6 7 9 9 10 9 8 8 11 13 17 20 21 21 21 19 15
9 10 9 10 11 15 14 11 11 11 8 5 5 6 3 4 5 5 5 7 8 8 8 9 8 9 9 9 14 15 14 14 15 18 20 18 16 9
5 6 9 10 15 20 14 13 9 9 11 14 13 12 9 6 3 3 5 5 6 7 5 8 8 9 10 11 9 11 11 15 15 13 16 16 14 6
8 9 13 14 18 16 13 11 9 8 7 8 7 6 6 7 4 6 4 6 5 6 4 4 6 8 6 6 5 10 10 8 10 10 10 11 8 6
8 8 8 17 19 19 14 8 9 8 5 5 4 3 3 3 3 4 5 5 6 8 5 5 6 8 8 12 9 9 11 11 5 7 7 6 7 7
10 7 11 21 20 16 13 19 15 7 4 3 3 2 1 2 3 4 6 7 8 10 10 9 7 9 10 12 13 9 11 9 7 6 6 7 9 8
8 14 22 20 21 15 17 16 8 4 3 3 2 0 2 3 5 6 7 9 10 10 9 12 11 11 11 13 13 13 13 12 8 8 8 6 5 5
14 11 9 11 12 12 9 6 4 3 2 2 1 2 2 4 5 5 7 7 8 8 9 10 11 12 11 12 12 14 13 12 8 8 7 7 6 5
10 7 6 6 6 5 5 4 3 3 1 1 1 3 4 5 6 5 6 7 8 9 9 8 10 12 13 16 14 14 13 13 11 9 9 7 5 6
6 6 5 4 4 4 4 4 3 2 1 2 3 4 5 5 6 6 7 8 9 9 9 9 9 10 11 14 18 14 14 12 10 9 9 7 8 8
5 4 4 3 3 3 3 2 2 3 3 3 4 5 5 6 7 7 8 8 9 10 9 9 9 10 12 12 11 9 13 10 8 8 8 8 7 6
5 5 4 4 4 3 3 3 2 1 3 4 5 6 6 7 8 8 8 9 9 10 10 10 10 9 11 11 12 14 20 13 11 9 9 7 5 8
5 6 5 4 4 3 4 3 4 4 5 5 6 6 6 7 9 9 9 11 11 11 12 10 10 14 11 12 12 13 11 14 17 8 8 8 7 7
6 6 6 5 5 5 4 4 5 5 6 7 7 8 8 8 9 10 9 10 10 10 11 10 11 11 11 11 13 15 12 9 14 14 6 6 4 6
6 6 5 5 5 5 6 6 7 7 7 8 8 8 8 8 9 9 9 9 10 10 11 11 10 10 11 12 14 13 17 14 9 10 9 9 5 8
Wind_Direction
235 237 232 239 222 223 202 198 217 216 225 213 219 205 200 195 158 193 223 175 212 249 259 260 269 278 282 285 284 285 286 286 286 286 284 282 279 277
238 235 228 224 222 218 212 206 211 236 236 230 203 177 167 167 173 231 224 165 210 228 243 255 264 275 284 287 289 289 288 291 291 289 287 286 285 283
235 235 235 226 218 217 215 214 212 222 231 203 181 169 177 174 173 209 233 240 240 197 227 256 279 286 284 286 289 288 289 291 291 290 289 289 287 286
237 237 242 219 222 215 210 215 216 215 213 212 185 186 196 169 198 217 249 247 254 167 210 265 281 281 279 282 280 283 288 289 291 292 293 291 288 287
223 228 237 231 215 210 206 210 225 192 215 181 179 158 143 166 175 220 230 243 247 232 230 239 245 257 268 278 279 283 287 289 289 289 292 294 294 291
224 220 216 219 223 216 205 198 201 182 178 172 160 149 146 187 220 222 228 225 247 260 248 243 272 265 261 259 263 271 276 275 282 294 295 291 288 286
235 226 222 219 221 210 188 191 185 174 176 165 153 142 160 179 192 222 238 264 254 259 266 264 275 279 277 254 262 256 275 296 293 294 296 295 293 290
231 226 228 213 209 197 191 173 181 179 168 154 161 172 178 190 216 214 237 250 266 213 248 269 284 277 273 271 279 275 276 282 289 293 295 294 292 293
232 221 204 197 165 147 109 95 80 84 128 141 154 158 169 161 207 216 230 240 253 275 286 280 279 274 275 285 276 278 279 283 288 294 297 293 290 293
214 190 177 164 158 144 136 122 113 100 88 86 104 136 140 140 204 241 265 268 270 262 254 268 270 286 292 295 291 284 279 281 283 295 299 294 291 261
86 121 137 127 130 126 113 106 69 79 88 84 85 82 83 75 7 247 230 247 269 272 262 274 273 299 301 289 269 242 230 251 262 286 300 295 286 237
86 94 118 124 124 120 115 121 109 134 137 135 132 138 164 139 186 244 250 251 269 281 163 274 303 314 301 291 302 312 286 265 221 252 287 279 256 230
98 95 85 90 95 97 96 99 112 133 131 140 145 146 170 194 220 226 255 265 262 258 311 314 300 299 278 288 288 295 292 278 302 289 220 206 214 267
101 91 102 101 97 87 95 106 100 110 125 133 153 156 217 258 280 284 280 277 271 270 287 289 274 284 286 284 288 291 289 295 283 275 253 202 216 234
84 108 104 99 99 97 98 96 108 111 119 144 159 217 326 310 308 286 277 275 275 276 272 268 263 273 269 274 281 285 291 284 280 255 242 228 247 255
101 94 93 90 92 107 102 97 105 125 106 83 11 293 296 275 281 292 293 296 291 283 276 269 270 274 272 271 274 279 275 271 273 240 230 238 244 234
103 111 119 115 119 128 122 112 123 132 113 91 281 284 292 287 283 297 293 293 285 290 291 284 276 269 268 273 272 269 269 266 261 244 228 225 233 239
105 117 120 133 140 138 142 136 138 151 92 349 308 299 298 299 303 303 294 281 283 285 287 290 288 285 277 263 244 258 259 258 248 231 222 222 237 241
104 108 114 111 97 105 107 90 69 66 24 321 316 304 296 290 285 286 289 287 284 286 289 294 292 283 282 284 295 296 276 274 238 222 216 214 235 251
67 72 79 75 76 71 71 63 54 331 322 324 317 313 307 298 294 288 285 289 292 298 300 290 278 284 291 304 303 293 296 292 284 220 213 216 215 110
79 76 70 64 61 49 45 13 1 344 334 307 304 302 304 301 296 294 294 292 290 281 284 293 302 318 287 276 269 274 280 262 247 262 222 211 215 214
49 60 51 40 24 15 358 345 324 323 323 320 319 313 304 299 292 290 288 291 291 294 293 295 300 294 289 286 284 288 283 287 247 220 264 278 274 231
36 30 35 22 4 349 335 335 326 323 316 314 309 304 304 298 291 290 288 290 293 293 297 298 297 297 288 284 287 288 280 283 223 197 223 218 166 116